| time (UTC) | temp F | wind direction | speed knots | gust knots | rain 1hr in | rain 24hr in | rain mn in | humidity % | barometer mb |
| 20260502164121 | 62 | 51 | 2.6 | 8.7 | 0.00 | 0.00 | 0.00 | 41 | 1014.2 |
| 20260502163619 | 61 | 46 | 2.6 | 8.7 | 0.00 | 0.00 | 0.00 | 44 | 1014.6 |
| 20260502163118 | 61 | 45 | 3.5 | 8.7 | 0.00 | 0.00 | 0.00 | 41 | 1014.6 |
| 20260502162617 | 61 | 42 | 3.5 | 7.0 | 0.00 | 0.00 | 0.00 | 44 | 1014.6 |
| 20260502162044 | 61 | 40 | 2.6 | 7.8 | 0.00 | 0.00 | 0.00 | 42 | 1014.6 |
| 20260502161543 | 61 | 50 | 2.6 | 8.7 | 0.00 | 0.00 | 0.00 | 43 | 1014.6 |
| 20260502161042 | 61 | 50 | 2.6 | 8.7 | 0.00 | 0.00 | 0.00 | 45 | 1014.6 |
| 20260502160541 | 61 | 316 | 0.9 | 6.1 | 0.00 | 0.00 | 0.00 | 48 | 1014.6 |
| 20260502151722 | 59 | 48 | 2.6 | 8.7 | 0.00 | 0.00 | 0.00 | 47 | 1014.6 |
| 20260502151220 | 59 | 34 | 2.6 | 8.7 | 0.00 | 0.00 | 0.00 | 48 | 1014.6 |
| 20260502150719 | 59 | 38 | 4.3 | 8.7 | 0.00 | 0.00 | 0.00 | 48 | 1014.6 |
| 20260502150218 | 58 | 53 | 1.7 | 7.8 | 0.00 | 0.00 | 0.00 | 48 | 1014.6 |
| 20260502130327 | 53 | 28 | 3.5 | 7.8 | 0.00 | 0.00 | 0.00 | 63 | 1014.6 |
| 20260502123321 | 51 | 16 | 0.9 | 1.7 | 0.00 | 0.00 | 0.00 | 75 | 1014.2 |
| 20260502122820 | 50 | 73 | 0.9 | 1.7 | 0.00 | 0.00 | 0.00 | 74 | 1014.2 |
| 20260502122319 | 50 | 32 | 0.9 | 1.7 | 0.00 | 0.00 | 0.00 | 74 | 1014.2 |
| 20260502121815 | 50 | 75 | 0.0 | 0.9 | 0.00 | 0.00 | 0.00 | 75 | 1014.2 |
| 20260502121313 | 49 | 75 | 0.0 | 1.7 | 0.00 | 0.00 | 0.00 | 76 | 1014.2 |
| 20260502120811 | 49 | 67 | 0.0 | 1.7 | 0.00 | 0.00 | 0.00 | 77 | 1014.2 |
| 20260502120239 | 49 | 267 | 0.9 | 0.9 | 0.00 | 0.00 | 0.00 | 80 | 1014.2 |
| 20260502115738 | 48 | 193 | 0.0 | 0.0 | 0.00 | 0.00 | 0.00 | 81 | 1013.9 |
| 20260502115236 | 48 | 194 | 0.0 | 0.0 | 0.00 | 0.00 | 0.00 | 80 | 1013.9 |
| 20260502114734 | 48 | 194 | 0.0 | 0.0 | 0.00 | 0.00 | 0.00 | 82 | 1013.9 |
| 20260502114234 | 48 | 194 | 0.0 | 0.9 | 0.00 | 0.00 | 0.00 | 83 | 1013.9 |
| 20260502113722 | 48 | 194 | 0.0 | 0.9 | 0.00 | 0.00 | 0.00 | 83 | 1013.5 |
| 20260502113221 | 48 | 194 | 0.0 | 0.9 | 0.00 | 0.00 | 0.00 | 83 | 1013.9 |
| 20260502112720 | 47 | 194 | 0.0 | 0.9 | 0.00 | 0.00 | 0.00 | 82 | 1013.5 |
| 20260502112218 | 47 | 194 | 0.9 | 0.9 | 0.00 | 0.00 | 0.00 | 82 | 1013.5 |
| 20260502111718 | 47 | 104 | 0.0 | 0.0 | 0.00 | 0.00 | 0.00 | 81 | 1013.5 |
| 20260502111215 | 47 | 105 | 0.0 | 0.0 | 0.00 | 0.00 | 0.00 | 80 | 1013.5 |
| 20260502110642 | 47 | 105 | 0.0 | 0.0 | 0.00 | 0.00 | 0.00 | 81 | 1013.2 |
| 20260502110140 | 47 | 105 | 0.0 | 0.0 | 0.00 | 0.00 | 0.00 | 80 | 1013.2 |
| 20260502105639 | 48 | 105 | 0.0 | 0.0 | 0.00 | 0.00 | 0.00 | 80 | 1013.2 |
| 20260502105137 | 48 | 105 | 0.0 | 0.0 | 0.00 | 0.00 | 0.00 | 79 | 1013.2 |
| 20260502104605 | 48 | 104 | 0.0 | 0.0 | 0.00 | 0.00 | 0.00 | 78 | 1013.2 |
| 20260502104104 | 48 | 104 | 0.0 | 0.0 | 0.00 | 0.00 | 0.00 | 78 | 1013.2 |
| 20260502103603 | 48 | 105 | 0.0 | 0.0 | 0.00 | 0.00 | 0.00 | 78 | 1013.2 |
| 20260502103101 | 48 | 105 | 0.0 | 0.0 | 0.00 | 0.00 | 0.00 | 77 | 1013.2 |
| 20260502102600 | 48 | 105 | 0.0 | 0.0 | 0.00 | 0.00 | 0.00 | 77 | 1013.5 |
| 20260502102059 | 48 | 105 | 0.0 | 0.0 | 0.00 | 0.00 | 0.00 | 76 | 1013.2 |
| 20260502101558 | 48 | 105 | 0.0 | 0.0 | 0.00 | 0.00 | 0.00 | 76 | 1013.2 |
| 20260502101056 | 49 | 105 | 0.0 | 0.0 | 0.00 | 0.00 | 0.00 | 75 | 1013.2 |
| 20260502100555 | 49 | 104 | 0.0 | 0.0 | 0.00 | 0.00 | 0.00 | 75 | 1013.2 |
| 20260502091438 | 50 | 115 | 0.0 | 0.9 | 0.00 | 0.00 | 0.00 | 72 | 1013.2 |
| 20260502090936 | 50 | 115 | 0.9 | 0.9 | 0.00 | 0.00 | 0.00 | 72 | 1013.2 |
| 20260502090403 | 50 | 115 | 0.9 | 0.9 | 0.00 | 0.00 | 0.00 | 72 | 1013.2 |
| 20260502071231 | 52 | 30 | 1.7 | 3.5 | 0.00 | 0.00 | 0.00 | 62 | 1014.2 |
| 20260502070729 | 52 | 55 | 0.9 | 2.6 | 0.00 | 0.00 | 0.00 | 62 | 1014.2 |
| 20260502070228 | 52 | 8 | 1.7 | 2.6 | 0.00 | 0.00 | 0.00 | 62 | 1014.2 |
| 20260502065727 | 53 | 48 | 0.9 | 2.6 | 0.00 | 0.00 | 0.00 | 61 | 1013.9 |
| 20260502065225 | 53 | 58 | 0.9 | 2.6 | 0.00 | 0.00 | 0.00 | 62 | 1013.9 |
| 20260502064724 | 53 | 12 | 0.9 | 2.6 | 0.00 | 0.00 | 0.00 | 60 | 1013.9 |
| 20260502064223 | 53 | 7 | 0.9 | 2.6 | 0.00 | 0.00 | 0.00 | 59 | 1013.9 |
| 20260502063721 | 53 | 61 | 0.9 | 3.5 | 0.00 | 0.00 | 0.00 | 59 | 1013.9 |
| 20260502063220 | 54 | 108 | 0.9 | 3.5 | 0.00 | 0.00 | 0.00 | 60 | 1013.9 |
| 20260502062717 | 54 | 66 | 0.0 | 4.3 | 0.00 | 0.00 | 0.00 | 60 | 1013.9 |
| 20260502062216 | 54 | 43 | 1.7 | 4.3 | 0.00 | 0.00 | 0.00 | 58 | 1013.9 |
| 20260502061715 | 54 | 66 | 0.9 | 5.2 | 0.00 | 0.00 | 0.00 | 58 | 1013.9 |
| 20260502061214 | 54 | 25 | 0.9 | 5.2 | 0.00 | 0.00 | 0.00 | 56 | 1013.9 |
| 20260502060713 | 54 | 47 | 1.7 | 6.1 | 0.00 | 0.00 | 0.00 | 56 | 1013.9 |
| 20260502060212 | 54 | 45 | 1.7 | 6.1 | 0.00 | 0.00 | 0.00 | 56 | 1013.9 |
| 20260502055638 | 54 | 41 | 3.5 | 6.1 | 0.00 | 0.00 | 0.00 | 55 | 1013.9 |
| 20260502055137 | 54 | 42 | 2.6 | 5.2 | 0.00 | 0.00 | 0.00 | 55 | 1013.9 |
| 20260502054636 | 55 | 64 | 1.7 | 5.2 | 0.00 | 0.00 | 0.00 | 55 | 1013.9 |
| 20260502054135 | 55 | 326 | 0.9 | 4.3 | 0.00 | 0.00 | 0.00 | 55 | 1013.9 |
| 20260502053632 | 55 | 43 | 1.7 | 6.1 | 0.00 | 0.00 | 0.00 | 54 | 1013.5 |
| 20260502053131 | 55 | 39 | 1.7 | 7.0 | 0.00 | 0.00 | 0.00 | 54 | 1013.5 |
| 20260502052630 | 55 | 0 | 0.9 | 7.0 | 0.00 | 0.00 | 0.00 | 54 | 1013.5 |
| 20260502052057 | 55 | 259 | 1.7 | 7.8 | 0.00 | 0.00 | 0.00 | 53 | 1013.5 |
| 20260502051555 | 55 | 44 | 2.6 | 7.8 | 0.00 | 0.00 | 0.00 | 53 | 1013.5 |
| 20260502051023 | 55 | 49 | 1.7 | 3.5 | 0.00 | 0.00 | 0.00 | 53 | 1013.5 |
| 20260502050521 | 56 | 54 | 1.7 | 3.5 | 0.00 | 0.00 | 0.00 | 54 | 1013.5 |
| 20260502050021 | 56 | 21 | 0.9 | 5.2 | 0.00 | 0.00 | 0.00 | 52 | 1013.5 |
| 20260502045520 | 56 | 44 | 1.7 | 5.2 | 0.00 | 0.00 | 0.00 | 51 | 1013.5 |
| 20260502045019 | 56 | 54 | 0.9 | 7.8 | 0.00 | 0.00 | 0.00 | 51 | 1013.5 |
| 20260502044518 | 56 | 43 | 1.7 | 7.8 | 0.00 | 0.00 | 0.00 | 51 | 1013.5 |
| 20260502044017 | 56 | 35 | 1.7 | 8.7 | 0.00 | 0.00 | 0.00 | 50 | 1013.5 |
| 20260502043412 | 57 | 59 | 4.3 | 8.7 | 0.00 | 0.00 | 0.00 | 49 | 1013.5 |
| 20260502042911 | 57 | 51 | 1.7 | 9.6 | 0.00 | 0.00 | 0.00 | 49 | 1013.5 |
| 20260502042410 | 57 | 41 | 4.3 | 9.6 | 0.00 | 0.00 | 0.00 | 50 | 1013.5 |
| 20260502041909 | 57 | 40 | 2.6 | 7.0 | 0.00 | 0.00 | 0.00 | 51 | 1013.5 |
| 20260502041408 | 57 | 74 | 0.9 | 7.0 | 0.00 | 0.00 | 0.00 | 51 | 1013.5 |
| 20260502040907 | 57 | 5 | 1.7 | 7.0 | 0.00 | 0.00 | 0.00 | 50 | 1013.5 |
| 20260502040406 | 57 | 92 | 0.9 | 7.8 | 0.00 | 0.00 | 0.00 | 51 | 1013.9 |
| 20260502035905 | 57 | 52 | 3.5 | 7.8 | 0.00 | 0.00 | 0.00 | 48 | 1013.9 |
| 20260502035333 | 57 | 39 | 1.7 | 4.3 | 0.00 | 0.00 | 0.00 | 52 | 1013.5 |
| 20260502034832 | 58 | 43 | 2.6 | 7.0 | 0.00 | 0.00 | 0.00 | 49 | 1013.5 |
| 20260502034331 | 58 | 65 | 1.7 | 8.7 | 0.00 | 0.00 | 0.00 | 50 | 1013.5 |
| 20260502033830 | 58 | 35 | 1.7 | 8.7 | 0.00 | 0.00 | 0.00 | 51 | 1013.5 |
| 20260502033257 | 58 | 50 | 2.6 | 9.6 | 0.00 | 0.00 | 0.00 | 49 | 1013.5 |
| 20260502032723 | 57 | 57 | 3.5 | 9.6 | 0.00 | 0.00 | 0.00 | 53 | 1013.5 |
| 20260502032222 | 58 | 57 | 0.9 | 7.8 | 0.00 | 0.00 | 0.00 | 53 | 1013.5 |
| 20260502031721 | 58 | 71 | 0.0 | 7.8 | 0.00 | 0.00 | 0.00 | 54 | 1013.5 |
| 20260502031219 | 58 | 86 | 1.7 | 8.7 | 0.00 | 0.00 | 0.00 | 52 | 1013.5 |
| 20260502030647 | 58 | 44 | 2.6 | 8.7 | 0.00 | 0.00 | 0.00 | 55 | 1013.5 |
| 20260502030146 | 58 | 26 | 2.6 | 6.1 | 0.00 | 0.00 | 0.00 | 58 | 1013.9 |
| 20260502025645 | 58 | 60 | 0.9 | 2.6 | 0.00 | 0.00 | 0.00 | 56 | 1013.9 |
| 20260502025143 | 58 | 51 | 0.9 | 2.6 | 0.00 | 0.00 | 0.00 | 59 | 1013.5 |
| 20260502024642 | 58 | 35 | 1.7 | 2.6 | 0.00 | 0.00 | 0.00 | 59 | 1013.5 |
| 20260502024141 | 58 | 260 | 0.9 | 4.3 | 0.00 | 0.00 | 0.00 | 61 | 1013.5 |
| 20260502023639 | 59 | 145 | 0.9 | 4.3 | 0.00 | 0.00 | 0.00 | 57 | 1013.5 |
| 20260502023138 | 59 | 118 | 0.0 | 7.8 | 0.00 | 0.00 | 0.00 | 59 | 1013.5 |
| 20260502022605 | 59 | 206 | 0.9 | 7.8 | 0.00 | 0.00 | 0.00 | 60 | 1013.5 |
| 20260502022104 | 59 | 51 | 0.9 | 8.7 | 0.00 | 0.00 | 0.00 | 60 | 1013.5 |
| 20260502021603 | 59 | 75 | 1.7 | 8.7 | 0.00 | 0.00 | 0.00 | 60 | 1013.5 |
| 20260502021102 | 59 | 132 | 0.0 | 3.5 | 0.00 | 0.00 | 0.00 | 63 | 1013.5 |
| 20260502020601 | 60 | 269 | 0.9 | 3.5 | 0.00 | 0.00 | 0.00 | 63 | 1013.5 |
| 20260502020100 | 60 | 88 | 0.9 | 3.5 | 0.00 | 0.00 | 0.00 | 62 | 1013.5 |
| 20260502015527 | 60 | 66 | 0.9 | 4.3 | 0.00 | 0.00 | 0.00 | 61 | 1013.2 |
| 20260502015026 | 61 | 65 | 0.9 | 6.1 | 0.00 | 0.00 | 0.00 | 60 | 1013.2 |
| 20260502014526 | 61 | 358 | 0.9 | 6.1 | 0.00 | 0.00 | 0.00 | 61 | 1013.2 |
| 20260502014024 | 61 | 33 | 3.5 | 6.1 | 0.00 | 0.00 | 0.00 | 60 | 1012.9 |
| 20260502013452 | 61 | 52 | 2.6 | 6.1 | 0.00 | 0.00 | 0.00 | 60 | 1012.9 |
| 20260502012951 | 61 | 40 | 2.6 | 6.1 | 0.00 | 0.00 | 0.00 | 60 | 1012.9 |
| 20260502012449 | 61 | 6 | 0.9 | 5.2 | 0.00 | 0.00 | 0.00 | 62 | 1012.5 |
| 20260502011917 | 61 | 53 | 1.7 | 5.2 | 0.00 | 0.00 | 0.00 | 62 | 1012.5 |
| 20260502011416 | 60 | 66 | 1.7 | 3.5 | 0.00 | 0.00 | 0.00 | 63 | 1012.5 |
| 20260502010915 | 61 | 73 | 0.9 | 0.9 | 0.00 | 0.00 | 0.00 | 63 | 1012.2 |
| 20260502010414 | 61 | 125 | 0.0 | 0.9 | 0.00 | 0.00 | 0.00 | 64 | 1012.2 |
| 20260502005913 | 61 | 126 | 0.0 | 0.9 | 0.00 | 0.00 | 0.00 | 61 | 1012.2 |
| 20260502005412 | 61 | 118 | 0.9 | 3.5 | 0.00 | 0.00 | 0.00 | 61 | 1012.2 |
| 20260502004910 | 61 | 95 | 0.9 | 3.5 | 0.00 | 0.00 | 0.00 | 61 | 1011.9 |
| 20260502004409 | 61 | 91 | 0.0 | 3.5 | 0.00 | 0.00 | 0.00 | 61 | 1011.9 |
| 20260502003907 | 61 | 324 | 1.7 | 3.5 | 0.00 | 0.00 | 0.00 | 61 | 1011.9 |
| 20260502003406 | 61 | 122 | 0.9 | 0.9 | 0.00 | 0.00 | 0.00 | 60 | 1011.5 |
| 20260502002833 | 61 | 122 | 0.0 | 0.9 | 0.00 | 0.00 | 0.00 | 59 | 1011.2 |
| 20260502002332 | 62 | 89 | 0.0 | 0.0 | 0.00 | 0.00 | 0.00 | 59 | 1011.2 |
| 20260502001830 | 62 | 89 | 0.0 | 0.9 | 0.00 | 0.00 | 0.00 | 59 | 1011.2 |
| 20260502001330 | 62 | 89 | 0.0 | 1.7 | 0.00 | 0.00 | 0.00 | 58 | 1011.2 |
| 20260502000826 | 63 | 89 | 0.0 | 1.7 | 0.00 | 0.00 | 0.00 | 59 | 1011.2 |
| 20260502000325 | 63 | 89 | 0.9 | 1.7 | 0.00 | 0.00 | 0.00 | 58 | 1011.2 |
| 20260501235824 | 63 | 89 | 0.0 | 1.7 | 0.00 | 0.00 | 0.00 | 57 | 1011.2 |
| 20260501235323 | 63 | 123 | 0.9 | 0.9 | 0.00 | 0.00 | 0.00 | 57 | 1011.2 |
| 20260501234822 | 64 | 80 | 0.0 | 0.9 | 0.00 | 0.00 | 0.00 | 55 | 1011.2 |
| 20260501234320 | 64 | 81 | 0.0 | 0.9 | 0.00 | 0.00 | 0.00 | 57 | 1011.2 |
| 20260501233818 | 64 | 81 | 0.0 | 0.9 | 0.00 | 0.00 | 0.00 | 54 | 1011.2 |
| 20260501233245 | 64 | 94 | 0.0 | 0.9 | 0.00 | 0.00 | 0.00 | 55 | 1011.2 |
| 20260501232744 | 65 | 94 | 0.9 | 0.9 | 0.00 | 0.00 | 0.00 | 53 | 1010.8 |
| 20260501232243 | 65 | 43 | 0.0 | 0.9 | 0.00 | 0.00 | 0.00 | 53 | 1010.8 |
| 20260501231742 | 65 | 37 | 0.0 | 0.9 | 0.00 | 0.00 | 0.00 | 55 | 1010.8 |
| 20260501231241 | 65 | 37 | 0.0 | 0.9 | 0.00 | 0.00 | 0.00 | 54 | 1010.5 |
| 20260501230740 | 66 | 37 | 0.0 | 0.9 | 0.00 | 0.00 | 0.00 | 54 | 1010.2 |
| 20260501230239 | 66 | 37 | 0.9 | 2.6 | 0.00 | 0.00 | 0.00 | 52 | 1010.5 |
| 20260501225738 | 66 | 37 | 0.0 | 2.6 | 0.00 | 0.00 | 0.00 | 53 | 1010.5 |
| 20260501225236 | 66 | 29 | 0.9 | 3.5 | 0.00 | 0.00 | 0.00 | 50 | 1010.5 |
| 20260501224734 | 67 | 43 | 1.7 | 3.5 | 0.00 | 0.00 | 0.00 | 50 | 1010.5 |
| 20260501224234 | 67 | 90 | 1.7 | 2.6 | 0.00 | 0.00 | 0.00 | 52 | 1010.5 |
| 20260501223733 | 67 | 81 | 1.7 | 2.6 | 0.00 | 0.00 | 0.00 | 50 | 1010.5 |
| 20260501223159 | 68 | 184 | 0.9 | 2.6 | 0.00 | 0.00 | 0.00 | 50 | 1010.5 |
| 20260501222627 | 68 | 91 | 0.9 | 0.9 | 0.00 | 0.00 | 0.00 | 51 | 1010.5 |
| 20260501222126 | 68 | 19 | 0.9 | 0.9 | 0.00 | 0.00 | 0.00 | 51 | 1010.5 |
| 20260501221624 | 68 | 69 | 0.0 | 0.9 | 0.00 | 0.00 | 0.00 | 48 | 1010.5 |
| 20260501221123 | 69 | 152 | 0.9 | 0.9 | 0.00 | 0.00 | 0.00 | 46 | 1010.5 |
| 20260501220622 | 69 | 274 | 0.0 | 2.6 | 0.00 | 0.00 | 0.00 | 47 | 1010.5 |
| 20260501220019 | 69 | 273 | 0.9 | 2.6 | 0.00 | 0.00 | 0.00 | 47 | 1010.8 |
| 20260501215516 | 69 | 311 | 0.0 | 3.5 | 0.00 | 0.00 | 0.00 | 47 | 1010.8 |
| 20260501215014 | 70 | 319 | 0.9 | 3.5 | 0.00 | 0.00 | 0.00 | 46 | 1010.8 |
| 20260501214513 | 70 | 157 | 0.0 | 2.6 | 0.00 | 0.00 | 0.00 | 44 | 1010.8 |
| 20260501214011 | 71 | 140 | 0.9 | 1.7 | 0.00 | 0.00 | 0.00 | 46 | 1010.8 |
| 20260501213458 | 71 | 196 | 0.9 | 3.5 | 0.00 | 0.00 | 0.00 | 45 | 1011.2 |
| 20260501212956 | 71 | 34 | 0.0 | 3.5 | 0.00 | 0.00 | 0.00 | 45 | 1011.2 |
| 20260501212455 | 71 | 88 | 0.9 | 3.5 | 0.00 | 0.00 | 0.00 | 44 | 1011.2 |
| 20260501211953 | 71 | 6 | 0.9 | 3.5 | 0.00 | 0.00 | 0.00 | 44 | 1011.2 |
| 20260501211451 | 71 | 111 | 1.7 | 2.6 | 0.00 | 0.00 | 0.00 | 43 | 1011.2 |
| 20260501210950 | 71 | 349 | 0.9 | 2.6 | 0.00 | 0.00 | 0.00 | 44 | 1011.2 |
| 20260501210416 | 71 | 212 | 1.7 | 2.6 | 0.00 | 0.00 | 0.00 | 45 | 1011.2 |
| 20260501205916 | 71 | 171 | 1.7 | 2.6 | 0.00 | 0.00 | 0.00 | 44 | 1011.2 |
| 20260501205415 | 71 | 135 | 0.9 | 2.6 | 0.00 | 0.00 | 0.00 | 44 | 1011.2 |
| 20260501204914 | 71 | 6 | 0.9 | 3.5 | 0.00 | 0.00 | 0.00 | 46 | 1011.2 |
| 20260501204413 | 71 | 293 | 0.9 | 3.5 | 0.00 | 0.00 | 0.00 | 46 | 1011.2 |
| 20260501203912 | 71 | 130 | 0.9 | 3.5 | 0.00 | 0.00 | 0.00 | 45 | 1011.2 |
| 20260501203411 | 71 | 151 | 1.7 | 3.5 | 0.00 | 0.00 | 0.00 | 43 | 1011.2 |
| 20260501202909 | 71 | 280 | 0.9 | 5.2 | 0.00 | 0.00 | 0.00 | 45 | 1011.2 |
| 20260501202408 | 71 | 130 | 0.9 | 5.2 | 0.00 | 0.00 | 0.00 | 43 | 1011.2 |
| 20260501201906 | 71 | 152 | 1.7 | 5.2 | 0.00 | 0.00 | 0.00 | 46 | 1011.5 |
| 20260501201405 | 71 | 230 | 1.7 | 6.1 | 0.00 | 0.00 | 0.00 | 44 | 1011.5 |
| 20260501200904 | 71 | 195 | 1.7 | 6.1 | 0.00 | 0.00 | 0.00 | 44 | 1011.5 |
| 20260501200403 | 71 | 207 | 1.7 | 6.1 | 0.00 | 0.00 | 0.00 | 46 | 1011.5 |
| 20260501195902 | 71 | 222 | 2.6 | 7.0 | 0.00 | 0.00 | 0.00 | 41 | 1011.5 |
| 20260501195330 | 71 | 219 | 3.5 | 7.0 | 0.00 | 0.00 | 0.00 | 45 | 1011.5 |
| 20260501194829 | 71 | 251 | 1.7 | 5.2 | 0.00 | 0.00 | 0.00 | 47 | 1011.9 |
| 20260501194328 | 71 | 229 | 1.7 | 5.2 | 0.00 | 0.00 | 0.00 | 46 | 1011.9 |
| 20260501193827 | 71 | 233 | 1.7 | 5.2 | 0.00 | 0.00 | 0.00 | 43 | 1011.9 |
| 20260501193326 | 71 | 207 | 1.7 | 4.3 | 0.00 | 0.00 | 0.00 | 43 | 1011.9 |
| 20260501192826 | 71 | 339 | 0.9 | 3.5 | 0.00 | 0.00 | 0.00 | 48 | 1011.9 |
| 20260501192324 | 70 | 203 | 0.9 | 3.5 | 0.00 | 0.00 | 0.00 | 47 | 1011.9 |
| 20260501191824 | 71 | 322 | 1.7 | 3.5 | 0.00 | 0.00 | 0.00 | 42 | 1011.9 |
| 20260501191251 | 71 | 329 | 1.7 | 4.3 | 0.00 | 0.00 | 0.00 | 43 | 1012.2 |
| 20260501190748 | 71 | 236 | 1.7 | 4.3 | 0.00 | 0.00 | 0.00 | 42 | 1011.9 |
| 20260501190216 | 71 | 213 | 0.9 | 5.2 | 0.00 | 0.00 | 0.00 | 46 | 1012.2 |
| 20260501185715 | 71 | 227 | 2.6 | 5.2 | 0.00 | 0.00 | 0.00 | 40 | 1011.9 |
| 20260501185214 | 71 | 209 | 1.7 | 3.5 | 0.00 | 0.00 | 0.00 | 42 | 1011.9 |
| 20260501184713 | 71 | 295 | 0.9 | 2.6 | 0.00 | 0.00 | 0.00 | 42 | 1011.9 |
| 20260501184140 | 70 | 200 | 0.9 | 2.6 | 0.00 | 0.00 | 0.00 | 46 | 1011.9 |
| 20260501183638 | 70 | 213 | 1.7 | 3.5 | 0.00 | 0.00 | 0.00 | 43 | 1012.2 |
| 20260501183137 | 70 | 311 | 0.9 | 3.5 | 0.00 | 0.00 | 0.00 | 44 | 1012.2 |
| 20260501182635 | 70 | 295 | 0.0 | 3.5 | 0.00 | 0.00 | 0.00 | 43 | 1012.2 |
| 20260501182133 | 71 | 44 | 0.9 | 3.5 | 0.00 | 0.00 | 0.00 | 41 | 1012.2 |
| 20260501181632 | 71 | 230 | 0.9 | 2.6 | 0.00 | 0.00 | 0.00 | 45 | 1012.5 |
| 20260501181131 | 70 | 283 | 0.9 | 4.3 | 0.00 | 0.00 | 0.00 | 45 | 1012.5 |
| 20260501180630 | 70 | 357 | 0.9 | 4.3 | 0.00 | 0.00 | 0.00 | 44 | 1012.5 |
| 20260501180129 | 70 | 253 | 0.9 | 4.3 | 0.00 | 0.00 | 0.00 | 45 | 1012.5 |
| 20260501175556 | 70 | 145 | 2.6 | 4.3 | 0.00 | 0.00 | 0.00 | 40 | 1012.5 |
| 20260501175055 | 70 | 172 | 2.6 | 3.5 | 0.00 | 0.00 | 0.00 | 43 | 1012.5 |
| 20260501174554 | 70 | 274 | 0.9 | 3.5 | 0.00 | 0.00 | 0.00 | 46 | 1012.9 |
| 20260501174021 | 70 | 223 | 1.7 | 3.5 | 0.00 | 0.00 | 0.00 | 42 | 1012.5 |
| 20260501173520 | 69 | 32 | 0.0 | 3.5 | 0.00 | 0.00 | 0.00 | 46 | 1012.5 |
| 20260501173019 | 69 | 175 | 1.7 | 3.5 | 0.00 | 0.00 | 0.00 | 44 | 1012.9 |
| 20260501172445 | 68 | 215 | 0.9 | 3.5 | 0.00 | 0.00 | 0.00 | 51 | 1012.9 |
| 20260501171944 | 68 | 206 | 1.7 | 3.5 | 0.00 | 0.00 | 0.00 | 44 | 1012.9 |
| 20260501171442 | 67 | 174 | 1.7 | 3.5 | 0.00 | 0.00 | 0.00 | 44 | 1012.9 |
| 20260501170941 | 67 | 180 | 1.7 | 2.6 | 0.00 | 0.00 | 0.00 | 47 | 1013.2 |
| 20260501170440 | 68 | 56 | 1.7 | 2.6 | 0.00 | 0.00 | 0.00 | 44 | 1012.9 |
| 20260501165939 | 68 | 337 | 1.7 | 2.6 | 0.00 | 0.00 | 0.00 | 44 | 1012.9 |
| 20260501165437 | 68 | 12 | 0.9 | 2.6 | 0.00 | 0.00 | 0.00 | 43 | 1013.2 |
| 20260501164936 | 67 | 173 | 0.9 | 2.6 | 0.00 | 0.00 | 0.00 | 46 | 1013.2 |